CZ-6A DEB, 60706

Orbit data source: Space-Track

CZ-6A DEB, 60706 is space debris in LEO originally from a launch on Tue, 06 Aug 2024 UTC launched from the Taiyaun Space Center, China (TSC). Debris objects in space refer to the collection of defunct objects orbiting the Earth. Examples of debris include non-operational satellites, rocket bodies, and fragments generated from explosions, collisions, or faulty payload assembly.

Loading next visibility...
Identifier
60706, 2024-140DK
Orbit
LEO
Country
Flag of CNCN / PRC
Related business
Manufacturer
SAST
Mission
Spacecraft
Bus & Motor
Unknown
Mass
Unknown
Launch date (UTC)
2024-08-06 (2 years ago)
Launch vehicle
Unknown
Launch site
Taiyaun Space Center, China (TSC)
Object type
Payload
Rocket body
Debris
Shape & HBR
Unknown shape, 0.2 m
Radar Cross Section
Medium (>0.1 m² and <1 m²)

Expand to show TLE details & history
Last TLE update: 13 hours ago

TLE from 13 hours ago
0 CZ-6A DEB
1 60706U 24140DK  26171.28985586  .00000334  00000-0  71645-4 0  9995
2 60706  89.0181 271.4892 0112500 260.3297  98.5188 14.52540085 98234
Epoch: 2026-06-20T06:57Z
TLE epoch observation values (Epoch: 2026-06-20T06:57:23.546Z)
Latitude
-0.00007°
Longitude
-101.36552°
Altitude
733.168 km
Speed
7.482 km/s
True Right ascension
18h 05m 57s
True Declination
0° 00' 00"
Sunlit
Object was in full shadow at epoch
Visualization orbit readout
Latitude
Unknown
Longitude
Unknown
Altitude
Unknown
Speed
Unknown
Apparent Right ascension
Unknown
Apparent Declination
Unknown
Sunlit
N/A
Visualization observer readout
Local Sidereal Time
07:14:10
Azimuth
Unknown
Elevation
Unknown
Doppler factor
Unknown
Orbital elements
Apogee altitude
794.058 km
Perigee altitude
634.479 km
Semi-major axis
7,092.405 km
Eccentricity
0.01125
Inclination
89.0181°
RAAN
271.4892°
Arg. of periapsis
260.3297°
True anomaly
99.79098°
Mean anomaly
98.5188°
Eccentric anomaly
99.15517°
Mean motion
3.63373 °/min
Orbital period
99.07 mins
BSTAR
0.000071645
Loading maneuver chart data...
Computing Atmospheric mass density...
Loading historical data...
Loading historical data...
Loading historical data...
Loading historical data...
Loading historical data...
Loading historical data...
Loading historical data...

Documentation

Showing up to 5 results
|